Starlink 30702

operational
NORAD ID: 57955 Int'l Des: 2023-148 Owner: SPXS Country: US Constellation: starlink
LEOCIRCULAR

About Starlink 30702

Description loading...

Live Position

Loading 3D Globe...

Upcoming Passes

Altitude History

Altitude vs Time

uPlot chart will show altitude changes over time

Two-Line Element Set

1 57955U 23148W 25304.17987687 -.00000071 00000-0 97293-5 0 9990
2 57955 53.1617 255.7743 0001222 95.9055 264.2085 15.30187824118735
Epoch: Oct 31, 2025 • Age: 20 hours

Current Status

Altitude 475.8 km
Velocity 7.63 km/s
Sub-Earth Point 3.58°N, 156.79°W
Launch Date Sep 25, 2023
Age 2 years
Type internet

Technical Details

Classification Payload
Mass 730.00 kg
Dry Mass 700.00 kg
Total Mass 730.00 kg
Length 0.30 m
Diameter 4.10 m
Span 29.00 m
Shape Box + pan
Manufacturer SPXS
Bus Type Starlink V2M
Phase Status In Orbit
Owner/State SPXS/US

Large Constellations

Loading constellations...